| time (UTC) | temp C | wind direction | speed KPH | gust KPH | rain 1hr cm | rain 24hr cm | rain mn cm | humidity % | barometer mb |
| 20260502164041 | 18 | 351 | 4.8 | 9.7 | 0.00 | 0.00 | 0.00 | 42 | 1018.6 |
| 20260502163519 | 17 | 353 | 4.8 | 9.7 | 0.00 | 0.00 | 0.00 | 44 | 1018.5 |
| 20260502163017 | 17 | 356 | 4.8 | 6.4 | 0.00 | 0.00 | 0.00 | 45 | 1018.8 |
| 20260502162516 | 16 | 356 | 3.2 | 6.4 | 0.00 | 0.00 | 0.00 | 45 | 1018.7 |
| 20260502162054 | 16 | 356 | 4.8 | 6.4 | 0.00 | 0.00 | 0.00 | 46 | 1018.7 |
| 20260502161532 | 15 | 356 | 3.2 | 6.4 | 0.00 | 0.00 | 0.00 | 48 | 1018.7 |
| 20260502161030 | 15 | 357 | 4.8 | 9.7 | 0.00 | 0.00 | 0.00 | 48 | 1018.7 |
| 20260502160529 | 15 | 3 | 4.8 | 9.7 | 0.00 | 0.00 | 0.00 | 49 | 1018.7 |
| 20260502152033 | 13 | 16 | 3.2 | 6.4 | 0.00 | 0.00 | 0.00 | 49 | 1018.6 |
| 20260502151531 | 13 | 16 | 1.6 | 4.8 | 0.00 | 0.00 | 0.00 | 48 | 1018.7 |
| 20260502151029 | 13 | 16 | 1.6 | 3.2 | 0.00 | 0.00 | 0.00 | 48 | 1018.6 |
| 20260502150528 | 13 | 16 | 3.2 | 4.8 | 0.00 | 0.00 | 0.00 | 48 | 1018.7 |
| 20260502130527 | 2 | 23 | 3.2 | 4.8 | 0.00 | 0.00 | 0.00 | 73 | 1018.3 |
| 20260502123517 | 2 | 137 | 1.6 | 3.2 | 0.00 | 0.00 | 0.00 | 69 | 1018.2 |
| 20260502123035 | 2 | 17 | 1.6 | 3.2 | 0.00 | 0.00 | 0.00 | 69 | 1018.2 |
| 20260502122534 | 2 | 17 | 1.6 | 3.2 | 0.00 | 0.00 | 0.00 | 68 | 1018.2 |
| 20260502122032 | 2 | 17 | 1.6 | 1.6 | 0.00 | 0.00 | 0.00 | 68 | 1018.2 |
| 20260502121531 | 2 | 17 | 0.0 | 1.6 | 0.00 | 0.00 | 0.00 | 69 | 1018.2 |
| 20260502121029 | 2 | 17 | 3.2 | 3.2 | 0.00 | 0.00 | 0.00 | 68 | 1018.1 |
| 20260502120547 | 2 | 17 | 3.2 | 4.8 | 0.00 | 0.00 | 0.00 | 67 | 1018.0 |
| 20260502115524 | 2 | 144 | 3.2 | 4.8 | 0.00 | 0.00 | 0.00 | 68 | 1018.0 |
| 20260502115022 | 2 | 17 | 3.2 | 3.2 | 0.00 | 0.00 | 0.00 | 67 | 1018.0 |
| 20260502114520 | 3 | 17 | 3.2 | 3.2 | 0.00 | 0.00 | 0.00 | 68 | 1017.9 |
| 20260502114019 | 3 | 17 | 3.2 | 4.8 | 0.00 | 0.00 | 0.00 | 67 | 1018.1 |
| 20260502113517 | 2 | 17 | 3.2 | 4.8 | 0.00 | 0.00 | 0.00 | 69 | 1018.1 |
| 20260502113015 | 2 | 60 | 1.6 | 3.2 | 0.00 | 0.00 | 0.00 | 67 | 1018.2 |
| 20260502112534 | 2 | 172 | 0.0 | 1.6 | 0.00 | 0.00 | 0.00 | 66 | 1018.2 |
| 20260502112032 | 3 | 157 | 1.6 | 3.2 | 0.00 | 0.00 | 0.00 | 66 | 1018.0 |
| 20260502111551 | 3 | 144 | 0.0 | 1.6 | 0.00 | 0.00 | 0.00 | 66 | 1018.1 |
| 20260502111029 | 3 | 0.0 | 0.0 | 0.00 | 0.00 | 0.00 | 65 | 1018.1 | |
| 20260502110527 | 3 | 17 | 0.0 | 1.6 | 0.00 | 0.00 | 0.00 | 66 | 1018.1 |
| 20260502110025 | 3 | 17 | 0.0 | 1.6 | 0.00 | 0.00 | 0.00 | 64 | 1018.1 |
| 20260502105524 | 3 | 17 | 0.0 | 1.6 | 0.00 | 0.00 | 0.00 | 65 | 1018.1 |
| 20260502105022 | 3 | 17 | 1.6 | 4.8 | 0.00 | 0.00 | 0.00 | 63 | 1018.1 |
| 20260502104521 | 4 | 17 | 3.2 | 4.8 | 0.00 | 0.00 | 0.00 | 64 | 1018.0 |
| 20260502104019 | 4 | 17 | 1.6 | 1.6 | 0.00 | 0.00 | 0.00 | 62 | 1018.1 |
| 20260502103517 | 5 | 95 | 0.0 | 3.2 | 0.00 | 0.00 | 0.00 | 59 | 1018.1 |
| 20260502103015 | 5 | 17 | 1.6 | 1.6 | 0.00 | 0.00 | 0.00 | 57 | 1018.1 |
| 20260502102534 | 5 | 17 | 1.6 | 1.6 | 0.00 | 0.00 | 0.00 | 56 | 1018.2 |
| 20260502102032 | 5 | 17 | 1.6 | 1.6 | 0.00 | 0.00 | 0.00 | 57 | 1018.1 |
| 20260502101029 | 5 | 17 | 3.2 | 3.2 | 0.00 | 0.00 | 0.00 | 58 | 1018.0 |
| 20260502100528 | 4 | 17 | 3.2 | 4.8 | 0.00 | 0.00 | 0.00 | 60 | 1018.0 |
| 20260502091531 | 7 | 125 | 1.6 | 4.8 | 0.00 | 0.00 | 0.00 | 51 | 1018.0 |
| 20260502091029 | 7 | 117 | 1.6 | 4.8 | 0.00 | 0.00 | 0.00 | 50 | 1018.0 |
| 20260502090527 | 7 | 0.0 | 0.0 | 0.00 | 0.00 | 0.00 | 49 | 1018.0 | |
| 20260502080106 | 8 | 58 | 6.4 | 6.4 | 0.00 | 0.00 | 0.00 | 46 | 1018.2 |
| 20260502071531 | 8 | 154 | 3.2 | 3.2 | 0.00 | 0.00 | 0.00 | 46 | 1018.1 |
| 20260502071050 | 8 | 165 | 0.0 | 3.2 | 0.00 | 0.00 | 0.00 | 45 | 1018.2 |
| 20260502070527 | 9 | 174 | 0.0 | 1.6 | 0.00 | 0.00 | 0.00 | 43 | 1018.2 |
| 20260502070026 | 8 | 146 | 1.6 | 3.2 | 0.00 | 0.00 | 0.00 | 44 | 1018.0 |
| 20260502065524 | 8 | 155 | 1.6 | 3.2 | 0.00 | 0.00 | 0.00 | 44 | 1018.1 |
| 20260502065022 | 8 | 0.0 | 0.0 | 0.00 | 0.00 | 0.00 | 45 | 1018.1 | |
| 20260502064521 | 9 | 155 | 0.0 | 3.2 | 0.00 | 0.00 | 0.00 | 43 | 1018.0 |
| 20260502064019 | 10 | 128 | 4.8 | 9.7 | 0.00 | 0.00 | 0.00 | 42 | 1017.8 |
| 20260502063517 | 10 | 123 | 1.6 | 6.4 | 0.00 | 0.00 | 0.00 | 41 | 1017.9 |
| 20260502063016 | 10 | 191 | 1.6 | 3.2 | 0.00 | 0.00 | 0.00 | 42 | 1018.0 |
| 20260502062534 | 10 | 208 | 3.2 | 6.4 | 0.00 | 0.00 | 0.00 | 41 | 1017.8 |
| 20260502062032 | 10 | 86 | 9.7 | 12.9 | 0.00 | 0.00 | 0.00 | 41 | 1017.7 |
| 20260502061531 | 10 | 86 | 9.7 | 12.9 | 0.00 | 0.00 | 0.00 | 41 | 1017.8 |
| 20260502061050 | 10 | 68 | 11.3 | 16.1 | 0.00 | 0.00 | 0.00 | 41 | 1017.7 |
| 20260502060527 | 9 | 64 | 9.7 | 14.5 | 0.00 | 0.00 | 0.00 | 41 | 1017.8 |
| 20260502060026 | 10 | 62 | 8.0 | 12.9 | 0.00 | 0.00 | 0.00 | 42 | 1017.7 |
| 20260502055524 | 10 | 55 | 9.7 | 17.7 | 0.00 | 0.00 | 0.00 | 41 | 1017.7 |
| 20260502055022 | 10 | 63 | 6.4 | 9.7 | 0.00 | 0.00 | 0.00 | 41 | 1017.7 |
| 20260502054521 | 10 | 63 | 6.4 | 9.7 | 0.00 | 0.00 | 0.00 | 41 | 1017.5 |
| 20260502054019 | 10 | 70 | 8.0 | 11.3 | 0.00 | 0.00 | 0.00 | 41 | 1017.6 |
| 20260502053517 | 10 | 51 | 8.0 | 14.5 | 0.00 | 0.00 | 0.00 | 40 | 1017.6 |
| 20260502053016 | 10 | 74 | 8.0 | 14.5 | 0.00 | 0.00 | 0.00 | 39 | 1017.6 |
| 20260502052554 | 10 | 77 | 6.4 | 9.7 | 0.00 | 0.00 | 0.00 | 39 | 1017.6 |
| 20260502052032 | 10 | 78 | 11.3 | 14.5 | 0.00 | 0.00 | 0.00 | 40 | 1017.5 |
| 20260502051551 | 10 | 79 | 11.3 | 14.5 | 0.00 | 0.00 | 0.00 | 39 | 1017.5 |
| 20260502051029 | 10 | 62 | 9.7 | 14.5 | 0.00 | 0.00 | 0.00 | 39 | 1017.4 |
| 20260502050528 | 11 | 64 | 9.7 | 14.5 | 0.00 | 0.00 | 0.00 | 39 | 1017.5 |
| 20260502050026 | 11 | 79 | 9.7 | 14.5 | 0.00 | 0.00 | 0.00 | 38 | 1017.4 |
| 20260502045524 | 11 | 86 | 11.3 | 14.5 | 0.00 | 0.00 | 0.00 | 38 | 1017.4 |
| 20260502045023 | 11 | 92 | 8.0 | 11.3 | 0.00 | 0.00 | 0.00 | 37 | 1017.6 |
| 20260502044521 | 11 | 85 | 9.7 | 11.3 | 0.00 | 0.00 | 0.00 | 36 | 1017.5 |
| 20260502044019 | 12 | 85 | 9.7 | 16.1 | 0.00 | 0.00 | 0.00 | 36 | 1017.5 |
| 20260502043517 | 12 | 86 | 9.7 | 16.1 | 0.00 | 0.00 | 0.00 | 35 | 1017.6 |
| 20260502043016 | 12 | 73 | 11.3 | 14.5 | 0.00 | 0.00 | 0.00 | 35 | 1017.5 |
| 20260502042534 | 12 | 77 | 9.7 | 14.5 | 0.00 | 0.00 | 0.00 | 35 | 1017.5 |
| 20260502042032 | 12 | 85 | 8.0 | 14.5 | 0.00 | 0.00 | 0.00 | 35 | 1017.5 |
| 20260502041551 | 12 | 72 | 8.0 | 14.5 | 0.00 | 0.00 | 0.00 | 36 | 1017.5 |
| 20260502041029 | 12 | 64 | 8.0 | 12.9 | 0.00 | 0.00 | 0.00 | 36 | 1017.5 |
| 20260502040527 | 12 | 59 | 9.7 | 12.9 | 0.00 | 0.00 | 0.00 | 36 | 1017.3 |
| 20260502040026 | 11 | 70 | 11.3 | 17.7 | 0.00 | 0.00 | 0.00 | 37 | 1017.2 |
| 20260502035524 | 11 | 84 | 9.7 | 16.1 | 0.00 | 0.00 | 0.00 | 38 | 1017.2 |
| 20260502035022 | 11 | 98 | 8.0 | 11.3 | 0.00 | 0.00 | 0.00 | 38 | 1017.2 |
| 20260502034521 | 11 | 92 | 11.3 | 16.1 | 0.00 | 0.00 | 0.00 | 38 | 1017.2 |
| 20260502034039 | 11 | 89 | 9.7 | 16.1 | 0.00 | 0.00 | 0.00 | 38 | 1017.2 |
| 20260502033517 | 11 | 87 | 9.7 | 16.1 | 0.00 | 0.00 | 0.00 | 38 | 1017.0 |
| 20260502033035 | 12 | 81 | 9.7 | 16.1 | 0.00 | 0.00 | 0.00 | 38 | 1017.1 |
| 20260502032534 | 12 | 84 | 9.7 | 16.1 | 0.00 | 0.00 | 0.00 | 38 | 1016.9 |
| 20260502032033 | 12 | 89 | 9.7 | 16.1 | 0.00 | 0.00 | 0.00 | 37 | 1017.0 |
| 20260502031530 | 12 | 78 | 11.3 | 17.7 | 0.00 | 0.00 | 0.00 | 37 | 1016.8 |
| 20260502031028 | 12 | 76 | 11.3 | 16.1 | 0.00 | 0.00 | 0.00 | 37 | 1016.8 |
| 20260502030527 | 12 | 73 | 11.3 | 14.5 | 0.00 | 0.00 | 0.00 | 37 | 1016.7 |
| 20260502030025 | 12 | 85 | 11.3 | 17.7 | 0.00 | 0.00 | 0.00 | 38 | 1016.7 |
| 20260502025523 | 12 | 70 | 8.0 | 12.9 | 0.00 | 0.00 | 0.00 | 39 | 1016.5 |
| 20260502025021 | 12 | 71 | 9.7 | 14.5 | 0.00 | 0.00 | 0.00 | 39 | 1016.6 |
| 20260502024519 | 11 | 72 | 11.3 | 17.7 | 0.00 | 0.00 | 0.00 | 39 | 1016.5 |
| 20260502024038 | 11 | 69 | 11.3 | 16.1 | 0.00 | 0.00 | 0.00 | 41 | 1016.4 |
| 20260502023516 | 11 | 54 | 9.7 | 16.1 | 0.00 | 0.00 | 0.00 | 43 | 1016.4 |
| 20260502023035 | 12 | 53 | 8.0 | 12.9 | 0.00 | 0.00 | 0.00 | 43 | 1016.5 |
| 20260502022533 | 12 | 343 | 8.0 | 11.3 | 0.00 | 0.00 | 0.00 | 41 | 1016.4 |
| 20260502022031 | 13 | 342 | 6.4 | 11.3 | 0.00 | 0.00 | 0.00 | 42 | 1016.4 |
| 20260502021530 | 14 | 342 | 4.8 | 6.4 | 0.00 | 0.00 | 0.00 | 43 | 1016.3 |
| 20260502021028 | 15 | 342 | 3.2 | 4.8 | 0.00 | 0.00 | 0.00 | 40 | 1016.4 |
| 20260502020526 | 16 | 342 | 4.8 | 4.8 | 0.00 | 0.00 | 0.00 | 38 | 1016.4 |
| 20260502020045 | 17 | 342 | 3.2 | 4.8 | 0.00 | 0.00 | 0.00 | 31 | 1016.4 |
| 20260502015523 | 17 | 341 | 1.6 | 4.8 | 0.00 | 0.00 | 0.00 | 27 | 1016.4 |
| 20260502015021 | 17 | 341 | 1.6 | 6.4 | 0.00 | 0.00 | 0.00 | 27 | 1016.3 |
| 20260502014520 | 18 | 341 | 1.6 | 4.8 | 0.00 | 0.00 | 0.00 | 26 | 1016.3 |
| 20260502014018 | 18 | 341 | 1.6 | 4.8 | 0.00 | 0.00 | 0.00 | 27 | 1016.2 |
| 20260502013536 | 18 | 341 | 3.2 | 4.8 | 0.00 | 0.00 | 0.00 | 27 | 1016.2 |
| 20260502013035 | 18 | 341 | 3.2 | 6.4 | 0.00 | 0.00 | 0.00 | 27 | 1016.3 |
| 20260502012533 | 18 | 341 | 4.8 | 11.3 | 0.00 | 0.00 | 0.00 | 27 | 1016.3 |
| 20260502012031 | 19 | 341 | 3.2 | 6.4 | 0.00 | 0.00 | 0.00 | 26 | 1016.2 |
| 20260502011530 | 19 | 341 | 3.2 | 4.8 | 0.00 | 0.00 | 0.00 | 25 | 1016.3 |
| 20260502011028 | 20 | 341 | 3.2 | 9.7 | 0.00 | 0.00 | 0.00 | 25 | 1016.2 |
| 20260502010527 | 20 | 341 | 3.2 | 11.3 | 0.00 | 0.00 | 0.00 | 25 | 1016.3 |
| 20260502010025 | 20 | 341 | 6.4 | 11.3 | 0.00 | 0.00 | 0.00 | 26 | 1016.3 |
| 20260502005523 | 20 | 339 | 4.8 | 9.7 | 0.00 | 0.00 | 0.00 | 25 | 1016.2 |
| 20260502005021 | 20 | 284 | 4.8 | 12.9 | 0.00 | 0.00 | 0.00 | 24 | 1016.3 |
| 20260502004540 | 20 | 346 | 1.6 | 4.8 | 0.00 | 0.00 | 0.00 | 24 | 1016.2 |
| 20260502004018 | 20 | 346 | 4.8 | 9.7 | 0.00 | 0.00 | 0.00 | 24 | 1016.4 |
| 20260502003516 | 20 | 346 | 1.6 | 9.7 | 0.00 | 0.00 | 0.00 | 24 | 1016.4 |
| 20260502003055 | 21 | 334 | 8.0 | 14.5 | 0.00 | 0.00 | 0.00 | 26 | 1016.3 |
| 20260502002533 | 21 | 294 | 4.8 | 11.3 | 0.00 | 0.00 | 0.00 | 25 | 1016.3 |
| 20260502002031 | 21 | 287 | 6.4 | 14.5 | 0.00 | 0.00 | 0.00 | 26 | 1016.3 |
| 20260502001530 | 21 | 281 | 3.2 | 9.7 | 0.00 | 0.00 | 0.00 | 25 | 1016.4 |
| 20260502001027 | 21 | 264 | 4.8 | 11.3 | 0.00 | 0.00 | 0.00 | 24 | 1016.4 |
| 20260502000546 | 21 | 314 | 6.4 | 12.9 | 0.00 | 0.00 | 0.00 | 25 | 1016.5 |
| 20260502000043 | 21 | 285 | 8.0 | 12.9 | 0.00 | 0.00 | 0.00 | 26 | 1016.5 |
| 20260501235521 | 21 | 261 | 4.8 | 12.9 | 0.00 | 0.00 | 0.00 | 26 | 1016.5 |
| 20260501235020 | 21 | 286 | 6.4 | 12.9 | 0.00 | 0.00 | 0.00 | 26 | 1016.5 |
| 20260501234517 | 21 | 310 | 4.8 | 12.9 | 0.00 | 0.00 | 0.00 | 27 | 1016.6 |
| 20260501234016 | 21 | 274 | 6.4 | 14.5 | 0.00 | 0.00 | 0.00 | 27 | 1016.6 |
| 20260501233535 | 21 | 296 | 6.4 | 17.7 | 0.00 | 0.00 | 0.00 | 27 | 1016.6 |
| 20260501233033 | 21 | 300 | 6.4 | 14.5 | 0.00 | 0.00 | 0.00 | 28 | 1016.5 |
| 20260501232531 | 21 | 316 | 4.8 | 11.3 | 0.00 | 0.00 | 0.00 | 26 | 1016.5 |
| 20260501232029 | 21 | 277 | 6.4 | 14.5 | 0.00 | 0.00 | 0.00 | 27 | 1016.4 |
| 20260501231527 | 21 | 292 | 8.0 | 20.9 | 0.00 | 0.00 | 0.00 | 27 | 1016.6 |
| 20260501231025 | 21 | 261 | 6.4 | 11.3 | 0.00 | 0.00 | 0.00 | 26 | 1016.6 |
| 20260501230523 | 21 | 293 | 6.4 | 14.5 | 0.00 | 0.00 | 0.00 | 27 | 1016.6 |
| 20260501230022 | 21 | 275 | 8.0 | 14.5 | 0.00 | 0.00 | 0.00 | 27 | 1016.7 |
| 20260501225520 | 21 | 312 | 8.0 | 20.9 | 0.00 | 0.00 | 0.00 | 27 | 1016.7 |
| 20260501225019 | 21 | 331 | 6.4 | 14.5 | 0.00 | 0.00 | 0.00 | 27 | 1016.7 |
| 20260501224517 | 21 | 269 | 6.4 | 14.5 | 0.00 | 0.00 | 0.00 | 27 | 1016.7 |
| 20260501224035 | 21 | 313 | 3.2 | 11.3 | 0.00 | 0.00 | 0.00 | 26 | 1016.6 |
| 20260501223634 | 21 | 247 | 4.8 | 9.7 | 0.00 | 0.00 | 0.00 | 25 | 1016.8 |
| 20260501223032 | 22 | 282 | 8.0 | 16.1 | 0.00 | 0.00 | 0.00 | 26 | 1017.0 |
| 20260501222530 | 22 | 328 | 4.8 | 11.3 | 0.00 | 0.00 | 0.00 | 26 | 1016.9 |
| 20260501222028 | 21 | 303 | 6.4 | 12.9 | 0.00 | 0.00 | 0.00 | 25 | 1017.0 |
| 20260501221527 | 21 | 310 | 8.0 | 20.9 | 0.00 | 0.00 | 0.00 | 29 | 1017.2 |
| 20260501221025 | 21 | 299 | 4.8 | 16.1 | 0.00 | 0.00 | 0.00 | 27 | 1017.1 |
| 20260501220523 | 21 | 298 | 6.4 | 12.9 | 0.00 | 0.00 | 0.00 | 28 | 1017.2 |
| 20260501220042 | 21 | 259 | 4.8 | 11.3 | 0.00 | 0.00 | 0.00 | 28 | 1017.3 |
| 20260501215520 | 21 | 297 | 9.7 | 22.5 | 0.00 | 0.00 | 0.00 | 29 | 1017.5 |
| 20260501215018 | 21 | 267 | 4.8 | 14.5 | 0.00 | 0.00 | 0.00 | 27 | 1017.5 |
| 20260501214617 | 21 | 329 | 4.8 | 12.9 | 0.00 | 0.00 | 0.00 | 26 | 1017.5 |
| 20260501214035 | 21 | 326 | 8.0 | 16.1 | 0.00 | 0.00 | 0.00 | 28 | 1017.6 |
| 20260501213533 | 21 | 320 | 6.4 | 16.1 | 0.00 | 0.00 | 0.00 | 27 | 1017.6 |
| 20260501213031 | 20 | 307 | 8.0 | 17.7 | 0.00 | 0.00 | 0.00 | 29 | 1017.5 |
| 20260501212530 | 20 | 266 | 4.8 | 12.9 | 0.00 | 0.00 | 0.00 | 29 | 1017.6 |
| 20260501212028 | 20 | 270 | 9.7 | 24.1 | 0.00 | 0.00 | 0.00 | 27 | 1017.7 |
| 20260501211526 | 21 | 318 | 8.0 | 17.7 | 0.00 | 0.00 | 0.00 | 29 | 1017.7 |
| 20260501211024 | 21 | 284 | 8.0 | 14.5 | 0.00 | 0.00 | 0.00 | 27 | 1017.8 |
| 20260501210523 | 21 | 349 | 6.4 | 17.7 | 0.00 | 0.00 | 0.00 | 27 | 1017.8 |
| 20260501210021 | 21 | 317 | 9.7 | 20.9 | 0.00 | 0.00 | 0.00 | 29 | 1017.6 |
| 20260501205520 | 20 | 358 | 8.0 | 14.5 | 0.00 | 0.00 | 0.00 | 28 | 1017.8 |
| 20260501205018 | 20 | 304 | 11.3 | 22.5 | 0.00 | 0.00 | 0.00 | 28 | 1017.8 |
| 20260501204516 | 20 | 273 | 6.4 | 22.5 | 0.00 | 0.00 | 0.00 | 28 | 1017.8 |
| 20260501204035 | 20 | 290 | 9.7 | 24.1 | 0.00 | 0.00 | 0.00 | 29 | 1017.8 |
| 20260501203533 | 20 | 286 | 8.0 | 22.5 | 0.00 | 0.00 | 0.00 | 29 | 1017.9 |
| 20260501203031 | 20 | 325 | 9.7 | 22.5 | 0.00 | 0.00 | 0.00 | 28 | 1017.9 |
| 20260501202530 | 20 | 280 | 6.4 | 11.3 | 0.00 | 0.00 | 0.00 | 30 | 1017.9 |
| 20260501202028 | 20 | 297 | 3.2 | 9.7 | 0.00 | 0.00 | 0.00 | 28 | 1018.0 |
| 20260501201526 | 20 | 298 | 8.0 | 17.7 | 0.00 | 0.00 | 0.00 | 29 | 1017.9 |
| 20260501201025 | 19 | 282 | 8.0 | 14.5 | 0.00 | 0.00 | 0.00 | 28 | 1017.9 |
| 20260501200523 | 19 | 279 | 6.4 | 17.7 | 0.00 | 0.00 | 0.00 | 29 | 1018.0 |
| 20260501200021 | 19 | 262 | 8.0 | 16.1 | 0.00 | 0.00 | 0.00 | 29 | 1018.0 |
| 20260501195520 | 20 | 288 | 8.0 | 16.1 | 0.00 | 0.00 | 0.00 | 29 | 1018.2 |
| 20260501195018 | 20 | 302 | 9.7 | 22.5 | 0.00 | 0.00 | 0.00 | 27 | 1018.1 |
| 20260501194516 | 20 | 347 | 8.0 | 14.5 | 0.00 | 0.00 | 0.00 | 27 | 1018.2 |
| 20260501194035 | 20 | 316 | 8.0 | 14.5 | 0.00 | 0.00 | 0.00 | 28 | 1018.1 |
| 20260501193553 | 20 | 298 | 8.0 | 16.1 | 0.00 | 0.00 | 0.00 | 30 | 1018.3 |
| 20260501193031 | 19 | 292 | 6.4 | 12.9 | 0.00 | 0.00 | 0.00 | 28 | 1018.3 |
| 20260501192530 | 19 | 323 | 8.0 | 14.5 | 0.00 | 0.00 | 0.00 | 27 | 1018.2 |
| 20260501192028 | 19 | 302 | 4.8 | 14.5 | 0.00 | 0.00 | 0.00 | 28 | 1018.3 |
| 20260501191527 | 19 | 282 | 6.4 | 12.9 | 0.00 | 0.00 | 0.00 | 28 | 1018.4 |
| 20260501191025 | 18 | 296 | 8.0 | 16.1 | 0.00 | 0.00 | 0.00 | 28 | 1018.4 |
| 20260501190523 | 16 | 353 | 4.8 | 11.3 | 0.00 | 0.00 | 0.00 | 33 | 1018.4 |
| 20260501190021 | 18 | 337 | 6.4 | 14.5 | 0.00 | 0.00 | 0.00 | 29 | 1018.4 |
| 20260501185520 | 19 | 317 | 9.7 | 16.1 | 0.00 | 0.00 | 0.00 | 29 | 1018.5 |
| 20260501185018 | 18 | 335 | 8.0 | 16.1 | 0.00 | 0.00 | 0.00 | 30 | 1018.4 |
| 20260501184516 | 18 | 321 | 8.0 | 14.5 | 0.00 | 0.00 | 0.00 | 30 | 1018.6 |
| 20260501184035 | 16 | 286 | 8.0 | 16.1 | 0.00 | 0.00 | 0.00 | 35 | 1018.7 |
| 20260501183533 | 18 | 291 | 6.4 | 11.3 | 0.00 | 0.00 | 0.00 | 29 | 1018.7 |
| 20260501183032 | 19 | 303 | 8.0 | 16.1 | 0.00 | 0.00 | 0.00 | 28 | 1018.7 |
| 20260501182530 | 19 | 329 | 6.4 | 14.5 | 0.00 | 0.00 | 0.00 | 28 | 1018.8 |
| 20260501182028 | 19 | 339 | 6.4 | 12.9 | 0.00 | 0.00 | 0.00 | 31 | 1018.7 |
| 20260501181526 | 18 | 353 | 4.8 | 11.3 | 0.00 | 0.00 | 0.00 | 29 | 1018.8 |
| 20260501181025 | 18 | 331 | 8.0 | 17.7 | 0.00 | 0.00 | 0.00 | 30 | 1018.9 |
| 20260501180523 | 18 | 350 | 4.8 | 11.3 | 0.00 | 0.00 | 0.00 | 30 | 1018.8 |
| 20260501180042 | 18 | 336 | 6.4 | 14.5 | 0.00 | 0.00 | 0.00 | 31 | 1018.9 |
| 20260501175520 | 18 | 331 | 6.4 | 11.3 | 0.00 | 0.00 | 0.00 | 31 | 1018.9 |
| 20260501175018 | 18 | 304 | 6.4 | 14.5 | 0.00 | 0.00 | 0.00 | 32 | 1019.0 |
| 20260501174517 | 17 | 334 | 6.4 | 11.3 | 0.00 | 0.00 | 0.00 | 32 | 1019.1 |
| 20260501174035 | 17 | 333 | 6.4 | 16.1 | 0.00 | 0.00 | 0.00 | 31 | 1019.1 |
| 20260501173533 | 17 | 279 | 8.0 | 14.5 | 0.00 | 0.00 | 0.00 | 34 | 1019.1 |
| 20260501173032 | 17 | 289 | 6.4 | 11.3 | 0.00 | 0.00 | 0.00 | 34 | 1019.1 |
| 20260501172530 | 17 | 297 | 4.8 | 14.5 | 0.00 | 0.00 | 0.00 | 34 | 1019.2 |
| 20260501172028 | 17 | 283 | 6.4 | 14.5 | 0.00 | 0.00 | 0.00 | 34 | 1019.2 |